NIGCOMSAT 1R

导读 | 星芒AI

NIGCOMSAT 1R 是尼日利亚的通信卫星,于2011年12月由阿丽亚娜5号火箭发射。该卫星由中国航天科技集团公司研制,旨在提供广播、电信和宽带互联网服务,覆盖非洲及周边地区。作为 NIGCOMSAT 1 的替代卫星,1R 具有更强的性能和更长的使用寿命,支持C波段和Ku波段传输,增强了尼日利亚在区域通信领域的自主能力。

基本信息
目录编号:
38014
目录名称:
NIGCOMSAT 1R
国际标识:
2011-077A
轨道中心:
EARTH
卫星名称:
NIGCOMSAT 1R
卫星全名:
--
卫星状态:
在轨 (已飞行5063 天)
发射日期:
2011-12-19 UTC
国别 :
(NG)
星等 :
--
轨道信息
数据来源 国际轨道数据 AOE轨道数据
星历时间 2025-10-28T22:57:32+0800
16小时前
查看轨道信息
2025-10-24T04:00:00+0800
5天前
查看轨道信息
半长轴 42164.196km 42164.784km
偏心率 0.0002222 0.000136
轨道倾角 0.013° 0.082°
近地点辐角 54.137° 208.104°
升交点赤经 237.440° 72.822°
平近点角 12.530° 94.082°
近地点 35776.692km 35780.914km
远地点 35795.43km 35792.384km
周期 1436.069分钟 1436.100分钟
每日圈数 1.002737 1.002716
详细信息
使用方式:
暂无
2D轨道图
3D轨道图
轨道高度分析图
轨道倾角分析图
轨道综合分析图
查看轨道综合分析图